Time,TemperatureF,DewpointF,PressureIn,WindDirection,WindDirectionDegrees,WindSpeedMPH,WindSpeedGustMPH,Humidity,HourlyPrecipIn,Conditions,Clouds,dailyrainin,SoftwareType,DateUTC
2013-02-07 00:01:00,20.7,16.3,30.15,North,360,0.0,6.0,83,0.00,,,0.00,WUHU216DAVISVP2,2013-02-07 06:01:00,
2013-02-07 00:06:00,20.6,16.2,30.15,North,360,5.0,6.0,83,0.00,,,0.00,WUHU216DAVISVP2,2013-02-07 06:06:00,
2013-02-07 00:11:00,20.3,15.9,30.15,NNE,13,3.0,10.0,83,0.00,,,0.00,WUHU216DAVISVP2,2013-02-07 06:11:00,
2013-02-07 00:16:00,19.8,15.2,30.15,NNE,19,5.0,10.0,82,0.00,,,0.00,WUHU216DAVISVP2,2013-02-07 06:16:00,
2013-02-07 00:21:00,19.7,15.4,30.16,NNE,15,4.0,9.0,83,0.00,,,0.00,WUHU216DAVISVP2,2013-02-07 06:21:00,
2013-02-07 00:26:00,19.7,15.4,30.16,North,5,0.0,5.0,83,0.00,,,0.00,WUHU216DAVISVP2,2013-02-07 06:26:00,
2013-02-07 00:31:00,19.7,15.4,30.15,NNE,15,2.0,5.0,83,0.00,,,0.00,WUHU216DAVISVP2,2013-02-07 06:31:00,
2013-02-07 00:36:00,19.9,15.6,30.16,ENE,60,3.0,7.0,83,0.00,,,0.00,WUHU216DAVISVP2,2013-02-07 06:36:00,
2013-02-07 00:41:00,19.7,15.4,30.16,North,11,3.0,7.0,83,0.00,,,0.00,WUHU216DAVISVP2,2013-02-07 06:41:00,
2013-02-07 00:46:00,19.4,15.1,30.16,North,11,0.0,7.0,83,0.00,,,0.00,WUHU216DAVISVP2,2013-02-07 06:46:00,
2013-02-07 00:51:00,19.1,14.5,30.16,North,10,3.0,7.0,82,0.00,,,0.00,WUHU216DAVISVP2,2013-02-07 06:51:00,
2013-02-07 00:56:00,18.8,14.2,30.16,NNE,12,0.0,7.0,82,0.00,,,0.00,WUHU216DAVISVP2,2013-02-07 06:56:00,
2013-02-07 01:01:00,18.5,13.9,30.16,NNE,18,4.0,7.0,82,0.00,,,0.00,WUHU216DAVISVP2,2013-02-07 07:01:00,
2013-02-07 01:06:00,18.1,13.8,30.16,NNE,17,2.0,7.0,83,0.00,,,0.00,WUHU216DAVISVP2,2013-02-07 07:06:00,
2013-02-07 01:11:00,18.0,13.7,30.17,North,355,3.0,7.0,83,0.00,,,0.00,WUHU216DAVISVP2,2013-02-07 07:11:00,
2013-02-07 01:16:00,18.0,13.7,30.17,North,11,0.0,7.0,83,0.00,,,0.00,WUHU216DAVISVP2,2013-02-07 07:16:00,
2013-02-07 01:21:00,18.0,13.7,30.17,NNE,13,4.0,7.0,83,0.00,,,0.00,WUHU216DAVISVP2,2013-02-07 07:21:00,
2013-02-07 01:26:00,18.0,13.7,30.17,NNE,21,0.0,6.0,83,0.00,,,0.00,WUHU216DAVISVP2,2013-02-07 07:26:00,
2013-02-07 01:31:00,18.1,13.8,30.17,NNE,19,0.0,6.0,83,0.00,,,0.00,WUHU216DAVISVP2,2013-02-07 07:31:00,
2013-02-07 01:36:00,18.1,13.8,30.18,NNE,22,4.0,6.0,83,0.00,,,0.00,WUHU216DAVISVP2,2013-02-07 07:36:00,
2013-02-07 01:41:00,18.1,13.8,30.18,NNE,17,1.0,6.0,83,0.00,,,0.00,WUHU216DAVISVP2,2013-02-07 07:41:00,
2013-02-07 01:46:00,18.1,13.8,30.18,NNE,20,0.0,6.0,83,0.00,,,0.00,WUHU216DAVISVP2,2013-02-07 07:46:00,
2013-02-07 01:51:00,18.1,14.1,30.17,NNE,25,3.0,6.0,84,0.00,,,0.00,WUHU216DAVISVP2,2013-02-07 07:51:00,
2013-02-07 01:56:00,18.1,14.1,30.18,North,5,3.0,4.0,84,0.00,,,0.00,WUHU216DAVISVP2,2013-02-07 07:56:00,
2013-02-07 02:01:00,18.2,14.2,30.18,NNE,14,3.0,4.0,84,0.00,,,0.00,WUHU216DAVISVP2,2013-02-07 08:01:00,
2013-02-07 02:06:00,18.3,14.3,30.18,NNE,24,0.0,4.0,84,0.00,,,0.00,WUHU216DAVISVP2,2013-02-07 08:06:00,
2013-02-07 02:11:00,18.4,14.3,30.18,North,9,2.0,4.0,84,0.00,,,0.00,WUHU216DAVISVP2,2013-02-07 08:11:00,
2013-02-07 02:16:00,18.5,14.4,30.19,NNE,30,0.0,4.0,84,0.00,,,0.00,WUHU216DAVISVP2,2013-02-07 08:16:00,
2013-02-07 02:21:00,18.5,14.4,30.19,NNE,22,0.0,4.0,84,0.00,,,0.00,WUHU216DAVISVP2,2013-02-07 08:21:00,
2013-02-07 02:26:00,18.5,14.2,30.19,NNE,17,3.0,6.0,83,0.00,,,0.00,WUHU216DAVISVP2,2013-02-07 08:26:00,
2013-02-07 02:31:00,18.4,14.1,30.18,North,355,2.0,6.0,83,0.00,,,0.00,WUHU216DAVISVP2,2013-02-07 08:31:00,
2013-02-07 02:36:00,18.3,14.3,30.19,North,9,3.0,5.0,84,0.00,,,0.00,WUHU216DAVISVP2,2013-02-07 08:36:00,
2013-02-07 02:41:00,18.2,14.2,30.19,NNE,21,0.0,5.0,84,0.00,,,0.00,WUHU216DAVISVP2,2013-02-07 08:41:00,
2013-02-07 02:46:00,18.2,14.2,30.19,NNE,24,0.0,5.0,84,0.00,,,0.00,WUHU216DAVISVP2,2013-02-07 08:46:00,
2013-02-07 02:51:00,18.2,14.2,30.19,North,9,2.0,7.0,84,0.00,,,0.00,WUHU216DAVISVP2,2013-02-07 08:51:00,
2013-02-07 02:56:00,18.2,14.2,30.19,NNE,19,3.0,7.0,84,0.00,,,0.00,WUHU216DAVISVP2,2013-02-07 08:56:00,
2013-02-07 03:01:00,18.2,14.2,30.19,NNE,19,3.0,8.0,84,0.00,,,0.00,WUHU216DAVISVP2,2013-02-07 09:01:00,
2013-02-07 03:06:00,18.2,14.2,30.19,NNE,13,4.0,8.0,84,0.00,,,0.00,WUHU216DAVISVP2,2013-02-07 09:06:00,
2013-02-07 03:11:00,18.3,14.3,30.19,NNE,27,4.0,6.0,84,0.00,,,0.00,WUHU216DAVISVP2,2013-02-07 09:11:00,
2013-02-07 03:16:00,18.4,14.3,30.19,NNE,15,1.0,7.0,84,0.00,,,0.00,WUHU216DAVISVP2,2013-02-07 09:16:00,
2013-02-07 03:21:00,18.4,14.3,30.19,NNE,24,5.0,10.0,84,0.00,,,0.00,WUHU216DAVISVP2,2013-02-07 09:21:00,
2013-02-07 03:26:00,18.5,14.4,30.19,NNE,22,4.0,10.0,84,0.00,,,0.00,WUHU216DAVISVP2,2013-02-07 09:26:00,
2013-02-07 03:31:00,18.4,14.3,30.19,NNE,17,0.0,8.0,84,0.00,,,0.00,WUHU216DAVISVP2,2013-02-07 09:31:00,
2013-02-07 03:36:00,18.3,14.0,30.19,North,360,3.0,8.0,83,0.00,,,0.00,WUHU216DAVISVP2,2013-02-07 09:36:00,
2013-02-07 03:41:00,18.3,14.0,30.18,NNE,21,0.0,7.0,83,0.00,,,0.00,WUHU216DAVISVP2,2013-02-07 09:41:00,
2013-02-07 03:46:00,18.2,14.2,30.18,NNW,348,0.0,7.0,84,0.00,,,0.00,WUHU216DAVISVP2,2013-02-07 09:46:00,
2013-02-07 03:51:00,18.0,13.7,30.18,NNE,15,0.0,7.0,83,0.00,,,0.00,WUHU216DAVISVP2,2013-02-07 09:51:00,
2013-02-07 03:56:00,17.9,13.6,30.18,NNE,15,0.0,6.0,83,0.00,,,0.00,WUHU216DAVISVP2,2013-02-07 09:56:00,
2013-02-07 04:01:00,17.9,13.9,30.19,NNE,24,0.0,6.0,84,0.00,,,0.00,WUHU216DAVISVP2,2013-02-07 10:01:00,
2013-02-07 04:06:00,17.3,13.0,30.19,NNE,25,0.0,6.0,83,0.00,,,0.00,WUHU216DAVISVP2,2013-02-07 10:06:00,
2013-02-07 04:11:00,16.1,11.6,30.19,NNW,330,0.0,6.0,82,0.00,,,0.00,WUHU216DAVISVP2,2013-02-07 10:11:00,
2013-02-07 04:16:00,15.2,10.7,30.19,North,9,3.0,5.0,82,0.00,,,0.00,WUHU216DAVISVP2,2013-02-07 10:16:00,
2013-02-07 04:21:00,14.6,10.1,30.19,NNE,24,3.0,9.0,82,0.00,,,0.00,WUHU216DAVISVP2,2013-02-07 10:21:00,
2013-02-07 04:26:00,14.0,9.5,30.19,North,360,0.0,9.0,82,0.00,,,0.00,WUHU216DAVISVP2,2013-02-07 10:26:00,
2013-02-07 04:31:00,13.6,9.4,30.20,NNE,12,3.0,6.0,83,0.00,,,0.00,WUHU216DAVISVP2,2013-02-07 10:31:00,
2013-02-07 04:36:00,13.4,9.2,30.21,NNE,26,0.0,7.0,83,0.00,,,0.00,WUHU216DAVISVP2,2013-02-07 10:36:00,
2013-02-07 04:41:00,13.4,9.2,30.21,NNE,19,0.0,7.0,83,0.00,,,0.00,WUHU216DAVISVP2,2013-02-07 10:41:00,
2013-02-07 04:46:00,13.4,9.2,30.22,NNE,26,0.0,0.0,83,0.00,,,0.00,WUHU216DAVISVP2,2013-02-07 10:46:00,
2013-02-07 04:51:00,13.3,9.1,30.22,North,360,0.0,3.0,83,0.00,,,0.00,WUHU216DAVISVP2,2013-02-07 10:51:00,
2013-02-07 04:56:00,13.3,9.1,30.22,NNE,19,2.0,5.0,83,0.00,,,0.00,WUHU216DAVISVP2,2013-02-07 10:56:00,
2013-02-07 05:01:00,13.3,9.1,30.22,NNE,15,0.0,5.0,83,0.00,,,0.00,WUHU216DAVISVP2,2013-02-07 11:01:00,
2013-02-07 05:06:00,13.2,9.0,30.23,North,360,0.0,4.0,83,0.00,,,0.00,WUHU216DAVISVP2,2013-02-07 11:06:00,
2013-02-07 05:11:00,13.2,9.0,30.23,NNE,15,0.0,4.0,83,0.00,,,0.00,WUHU216DAVISVP2,2013-02-07 11:11:00,
2013-02-07 05:16:00,13.2,9.0,30.22,NNE,21,3.0,4.0,83,0.00,,,0.00,WUHU216DAVISVP2,2013-02-07 11:16:00,
2013-02-07 05:21:00,13.2,9.0,30.22,North,349,3.0,5.0,83,0.00,,,0.00,WUHU216DAVISVP2,2013-02-07 11:21:00,
2013-02-07 05:26:00,13.3,9.1,30.22,NNE,26,0.0,5.0,83,0.00,,,0.00,WUHU216DAVISVP2,2013-02-07 11:26:00,
2013-02-07 05:31:00,13.3,9.1,30.22,NNE,24,0.0,4.0,83,0.00,,,0.00,WUHU216DAVISVP2,2013-02-07 11:31:00,
2013-02-07 05:36:00,13.3,9.1,30.22,North,360,4.0,9.0,83,0.00,,,0.00,WUHU216DAVISVP2,2013-02-07 11:36:00,
2013-02-07 05:41:00,13.1,8.9,30.23,NNE,12,3.0,9.0,83,0.00,,,0.00,WUHU216DAVISVP2,2013-02-07 11:41:00,
2013-02-07 05:46:00,13.0,8.8,30.23,NNE,17,0.0,5.0,83,0.00,,,0.00,WUHU216DAVISVP2,2013-02-07 11:46:00,
2013-02-07 05:51:00,13.1,8.9,30.23,NNE,20,0.0,4.0,83,0.00,,,0.00,WUHU216DAVISVP2,2013-02-07 11:51:00,
2013-02-07 05:56:00,13.0,8.8,30.23,NNE,18,0.0,3.0,83,0.00,,,0.00,WUHU216DAVISVP2,2013-02-07 11:56:00,
2013-02-07 06:01:00,13.0,8.8,30.23,NNE,18,0.0,0.0,83,0.00,,,0.00,WUHU216DAVISVP2,2013-02-07 12:01:00,
2013-02-07 06:06:00,13.0,8.8,30.23,NNE,24,0.0,5.0,83,0.00,,,0.00,WUHU216DAVISVP2,2013-02-07 12:06:00,
2013-02-07 06:11:00,12.9,8.7,30.23,NNE,29,0.0,5.0,83,0.00,,,0.00,WUHU216DAVISVP2,2013-02-07 12:11:00,
2013-02-07 06:16:00,12.8,8.6,30.23,North,5,2.0,5.0,83,0.00,,,0.00,WUHU216DAVISVP2,2013-02-07 12:16:00,
2013-02-07 06:21:00,12.7,8.5,30.22,NNE,19,0.0,5.0,83,0.00,,,0.00,WUHU216DAVISVP2,2013-02-07 12:21:00,
2013-02-07 06:26:00,12.8,8.6,30.22,NNE,19,0.0,4.0,83,0.00,,,0.00,WUHU216DAVISVP2,2013-02-07 12:26:00,
2013-02-07 06:31:00,12.8,8.6,30.23,NNE,14,0.0,0.0,83,0.00,,,0.00,WUHU216DAVISVP2,2013-02-07 12:31:00,
2013-02-07 06:36:00,12.8,8.6,30.23,NNE,14,0.0,0.0,83,0.00,,,0.00,WUHU216DAVISVP2,2013-02-07 12:36:00,
2013-02-07 06:41:00,12.8,8.6,30.23,NNE,13,2.0,5.0,83,0.00,,,0.00,WUHU216DAVISVP2,2013-02-07 12:41:00,
2013-02-07 06:46:00,13.0,9.1,30.23,NNE,13,0.0,5.0,84,0.00,,,0.00,WUHU216DAVISVP2,2013-02-07 12:46:00,
2013-02-07 06:51:00,13.0,9.1,30.23,NNE,15,0.0,4.0,84,0.00,,,0.00,WUHU216DAVISVP2,2013-02-07 12:51:00,
2013-02-07 06:56:00,13.0,9.1,30.23,NNE,18,0.0,4.0,84,0.00,,,0.00,WUHU216DAVISVP2,2013-02-07 12:56:00,
2013-02-07 07:01:00,12.9,8.7,30.23,North,360,0.0,0.0,83,0.00,,,0.00,WUHU216DAVISVP2,2013-02-07 13:01:00,
2013-02-07 07:06:00,12.6,8.4,30.24,North,355,0.0,0.0,83,0.00,,,0.00,WUHU216DAVISVP2,2013-02-07 13:06:00,
2013-02-07 07:11:00,12.1,7.9,30.24,NNE,19,0.0,5.0,83,0.00,,,0.00,WUHU216DAVISVP2,2013-02-07 13:11:00,
2013-02-07 07:16:00,11.8,7.6,30.24,North,5,0.0,5.0,83,0.00,,,0.00,WUHU216DAVISVP2,2013-02-07 13:16:00,
2013-02-07 07:22:00,11.4,7.0,30.24,NW,319,0.0,0.0,82,0.00,,,0.00,WUHU216DAVISVP2,2013-02-07 13:22:00,
2013-02-07 07:27:00,10.9,6.5,30.25,North,351,0.0,0.0,82,0.00,,,0.00,WUHU216DAVISVP2,2013-02-07 13:27:00,
2013-02-07 07:32:00,10.4,6.0,30.25,North,350,0.0,0.0,82,0.00,,,0.00,WUHU216DAVISVP2,2013-02-07 13:32:00,
2013-02-07 07:37:00,10.0,5.6,30.25,North,355,0.0,4.0,82,0.00,,,0.00,WUHU216DAVISVP2,2013-02-07 13:37:00,
2013-02-07 07:42:00,9.9,5.5,30.25,NNW,342,0.0,5.0,82,0.00,,,0.00,WUHU216DAVISVP2,2013-02-07 13:42:00,
2013-02-07 07:47:00,9.9,5.8,30.26,North,10,0.0,5.0,83,0.00,,,0.00,WUHU216DAVISVP2,2013-02-07 13:47:00,
2013-02-07 07:52:00,9.9,5.8,30.26,NW,324,2.0,5.0,83,0.00,,,0.00,WUHU216DAVISVP2,2013-02-07 13:52:00,
2013-02-07 07:57:00,9.9,5.8,30.26,NNW,336,0.0,5.0,83,0.00,,,0.00,WUHU216DAVISVP2,2013-02-07 13:57:00,
2013-02-07 08:02:00,9.9,5.8,30.26,NNW,336,2.0,5.0,83,0.00,,,0.00,WUHU216DAVISVP2,2013-02-07 14:02:00,
2013-02-07 08:07:00,10.0,5.8,30.27,NNW,335,0.0,5.0,83,0.00,,,0.00,WUHU216DAVISVP2,2013-02-07 14:07:00,
2013-02-07 08:12:00,10.1,5.9,30.27,NNW,327,0.0,3.0,83,0.00,,,0.00,WUHU216DAVISVP2,2013-02-07 14:12:00,
2013-02-07 08:17:00,9.9,5.8,30.27,NNE,18,2.0,4.0,83,0.00,,,0.00,WUHU216DAVISVP2,2013-02-07 14:17:00,
2013-02-07 08:22:00,9.9,5.8,30.27,NNW,331,0.0,5.0,83,0.00,,,0.00,WUHU216DAVISVP2,2013-02-07 14:22:00,
2013-02-07 08:27:00,9.8,5.7,30.27,NNE,15,0.0,5.0,83,0.00,,,0.00,WUHU216DAVISVP2,2013-02-07 14:27:00,
2013-02-07 08:32:00,9.7,5.6,30.28,North,9,2.0,5.0,83,0.00,,,0.00,WUHU216DAVISVP2,2013-02-07 14:32:00,
2013-02-07 08:37:00,9.6,5.5,30.28,North,5,0.0,4.0,83,0.00,,,0.00,WUHU216DAVISVP2,2013-02-07 14:37:00,
2013-02-07 08:42:00,9.6,5.5,30.28,NNW,334,0.0,4.0,83,0.00,,,0.00,WUHU216DAVISVP2,2013-02-07 14:42:00,
2013-02-07 08:47:00,9.5,5.4,30.29,North,5,0.0,4.0,83,0.00,,,0.00,WUHU216DAVISVP2,2013-02-07 14:47:00,
2013-02-07 08:52:00,9.3,4.9,30.29,NNE,22,2.0,6.0,82,0.00,,,0.00,WUHU216DAVISVP2,2013-02-07 14:52:00,
2013-02-07 08:57:00,9.4,5.3,30.30,NW,314,0.0,6.0,83,0.00,,,0.00,WUHU216DAVISVP2,2013-02-07 14:57:00,
2013-02-07 09:02:00,9.3,5.2,30.30,North,360,0.0,3.0,83,0.00,,,0.00,WUHU216DAVISVP2,2013-02-07 15:02:00,
2013-02-07 09:07:00,9.4,5.3,30.30,NW,304,0.0,0.0,83,0.00,,,0.00,WUHU216DAVISVP2,2013-02-07 15:07:00,
2013-02-07 09:12:00,9.4,5.3,30.31,NW,316,0.0,0.0,83,0.00,,,0.00,WUHU216DAVISVP2,2013-02-07 15:12:00,
2013-02-07 09:17:00,9.5,5.4,30.31,NW,319,0.0,0.0,83,0.00,,,0.00,WUHU216DAVISVP2,2013-02-07 15:17:00,
2013-02-07 09:22:00,9.2,4.8,30.31,NW,308,0.0,3.0,82,0.00,,,0.00,WUHU216DAVISVP2,2013-02-07 15:22:00,
2013-02-07 09:27:00,9.1,4.7,30.30,NNE,16,0.0,6.0,82,0.00,,,0.00,WUHU216DAVISVP2,2013-02-07 15:27:00,
2013-02-07 09:32:00,9.2,4.8,30.31,NNE,16,0.0,6.0,82,0.00,,,0.00,WUHU216DAVISVP2,2013-02-07 15:32:00,
2013-02-07 09:37:00,9.5,5.1,30.31,NNE,15,4.0,4.0,82,0.00,,,0.00,WUHU216DAVISVP2,2013-02-07 15:37:00,
2013-02-07 09:42:00,9.5,5.1,30.31,NNE,17,0.0,5.0,82,0.00,,,0.00,WUHU216DAVISVP2,2013-02-07 15:42:00,
2013-02-07 09:47:00,9.4,5.0,30.31,North,10,1.0,5.0,82,0.00,,,0.00,WUHU216DAVISVP2,2013-02-07 15:47:00,
2013-02-07 09:52:00,9.5,5.4,30.31,North,9,0.0,5.0,83,0.00,,,0.00,WUHU216DAVISVP2,2013-02-07 15:52:00,
2013-02-07 09:57:00,9.7,5.6,30.31,North,5,0.0,1.0,83,0.00,,,0.00,WUHU216DAVISVP2,2013-02-07 15:57:00,
2013-02-07 10:02:00,9.8,5.7,30.31,NW,315,0.0,4.0,83,0.00,,,0.00,WUHU216DAVISVP2,2013-02-07 16:02:00,
2013-02-07 10:07:00,9.9,5.8,30.31,North,355,0.0,4.0,83,0.00,,,0.00,WUHU216DAVISVP2,2013-02-07 16:07:00,
2013-02-07 10:12:00,9.9,5.8,30.31,NNW,338,0.0,3.0,83,0.00,,,0.00,WUHU216DAVISVP2,2013-02-07 16:12:00,
2013-02-07 10:17:00,9.9,5.8,30.31,NNE,19,0.0,4.0,83,0.00,,,0.00,WUHU216DAVISVP2,2013-02-07 16:17:00,
2013-02-07 10:22:00,10.2,6.0,30.31,NNW,338,0.0,4.0,83,0.00,,,0.00,WUHU216DAVISVP2,2013-02-07 16:22:00,
2013-02-07 10:27:00,10.3,6.1,30.31,NNW,332,0.0,4.0,83,0.00,,,0.00,WUHU216DAVISVP2,2013-02-07 16:27:00,
2013-02-07 10:32:00,10.4,6.2,30.31,WNW,298,3.0,4.0,83,0.00,,,0.00,WUHU216DAVISVP2,2013-02-07 16:32:00,
2013-02-07 10:37:00,10.5,6.3,30.31,WNW,298,0.0,3.0,83,0.00,,,0.00,WUHU216DAVISVP2,2013-02-07 16:37:00,
2013-02-07 10:42:00,10.6,6.2,30.32,WNW,299,0.0,1.0,82,0.00,,,0.00,WUHU216DAVISVP2,2013-02-07 16:42:00,
2013-02-07 10:47:00,10.6,6.2,30.32,North,360,2.0,4.0,82,0.00,,,0.00,WUHU216DAVISVP2,2013-02-07 16:47:00,
2013-02-07 10:52:00,10.7,6.3,30.32,North,350,0.0,4.0,82,0.00,,,0.00,WUHU216DAVISVP2,2013-02-07 16:52:00,
2013-02-07 10:57:00,10.8,6.6,30.33,NW,305,1.0,5.0,83,0.00,,,0.00,WUHU216DAVISVP2,2013-02-07 16:57:00,
2013-02-07 11:02:00,10.8,6.6,30.33,NW,310,0.0,5.0,83,0.00,,,0.00,WUHU216DAVISVP2,2013-02-07 17:02:00,
2013-02-07 11:07:00,10.8,6.6,30.33,NNW,334,0.0,4.0,83,0.00,,,0.00,WUHU216DAVISVP2,2013-02-07 17:07:00,
2013-02-07 11:12:00,11.0,6.8,30.33,NW,304,0.0,5.0,83,0.00,,,0.00,WUHU216DAVISVP2,2013-02-07 17:12:00,
2013-02-07 11:17:00,11.3,7.1,30.33,WNW,294,0.0,5.0,83,0.00,,,0.00,WUHU216DAVISVP2,2013-02-07 17:17:00,
2013-02-07 11:22:00,11.5,7.3,30.33,WNW,294,0.0,3.0,83,0.00,,,0.00,WUHU216DAVISVP2,2013-02-07 17:22:00,
2013-02-07 11:27:00,11.9,7.7,30.33,WNW,294,0.0,3.0,83,0.00,,,0.00,WUHU216DAVISVP2,2013-02-07 17:27:00,
2013-02-07 11:32:00,12.0,7.8,30.33,NW,313,2.0,2.0,83,0.00,,,0.00,WUHU216DAVISVP2,2013-02-07 17:32:00,
2013-02-07 11:37:00,12.1,7.9,30.33,WNW,296,1.0,3.0,83,0.00,,,0.00,WUHU216DAVISVP2,2013-02-07 17:37:00,
2013-02-07 11:42:00,12.2,8.0,30.33,WNW,299,1.0,4.0,83,0.00,,,0.00,WUHU216DAVISVP2,2013-02-07 17:42:00,
2013-02-07 11:47:00,12.1,7.6,30.33,North,349,1.0,4.0,82,0.00,,,0.00,WUHU216DAVISVP2,2013-02-07 17:47:00,
2013-02-07 11:52:00,12.0,7.5,30.33,North,9,1.0,4.0,82,0.00,,,0.00,WUHU216DAVISVP2,2013-02-07 17:52:00,
2013-02-07 11:57:00,12.1,7.9,30.33,NNW,340,0.0,4.0,83,0.00,,,0.00,WUHU216DAVISVP2,2013-02-07 17:57:00,
2013-02-07 12:02:00,12.4,8.2,30.33,NNW,338,0.0,2.0,83,0.00,,,0.00,WUHU216DAVISVP2,2013-02-07 18:02:00,
2013-02-07 12:07:00,12.5,8.3,30.33,NNW,336,0.0,0.0,83,0.00,,,0.00,WUHU216DAVISVP2,2013-02-07 18:07:00,
2013-02-07 12:12:00,12.5,8.3,30.33,NNE,15,4.0,6.0,83,0.00,,,0.00,WUHU216DAVISVP2,2013-02-07 18:12:00,
2013-02-07 12:17:00,12.2,7.7,30.32,North,360,3.0,7.0,82,0.00,,,0.00,WUHU216DAVISVP2,2013-02-07 18:17:00,
2013-02-07 12:22:00,12.5,8.3,30.32,North,11,0.0,7.0,83,0.00,,,0.00,WUHU216DAVISVP2,2013-02-07 18:22:00,
2013-02-07 12:27:00,12.5,8.0,30.32,NNE,32,3.0,5.0,82,0.00,,,0.00,WUHU216DAVISVP2,2013-02-07 18:27:00,
2013-02-07 12:32:00,12.4,7.9,30.32,NNE,13,1.0,6.0,82,0.00,,,0.00,WUHU216DAVISVP2,2013-02-07 18:32:00,
2013-02-07 12:37:00,12.3,7.8,30.32,NNE,13,1.0,7.0,82,0.00,,,0.00,WUHU216DAVISVP2,2013-02-07 18:37:00,
2013-02-07 12:42:00,12.2,7.7,30.32,NNW,344,1.0,10.0,82,0.00,,,0.00,WUHU216DAVISVP2,2013-02-07 18:42:00,
2013-02-07 12:47:00,12.6,8.1,30.32,North,355,2.0,10.0,82,0.00,,,0.00,WUHU216DAVISVP2,2013-02-07 18:47:00,
2013-02-07 12:52:00,12.7,8.2,30.32,NNE,17,0.0,5.0,82,0.00,,,0.00,WUHU216DAVISVP2,2013-02-07 18:52:00,
2013-02-07 12:57:00,12.9,8.4,30.32,North,5,2.0,6.0,82,0.00,,,0.00,WUHU216DAVISVP2,2013-02-07 18:57:00,
2013-02-07 13:02:00,12.9,8.4,30.33,North,360,1.0,6.0,82,0.00,,,0.00,WUHU216DAVISVP2,2013-02-07 19:02:00,
2013-02-07 13:07:00,13.0,8.5,30.32,North,355,4.0,6.0,82,0.00,,,0.00,WUHU216DAVISVP2,2013-02-07 19:07:00,
2013-02-07 13:12:00,13.0,8.5,30.32,North,5,2.0,6.0,82,0.00,,,0.00,WUHU216DAVISVP2,2013-02-07 19:12:00,
2013-02-07 13:17:00,13.0,8.5,30.32,North,355,4.0,6.0,82,0.00,,,0.00,WUHU216DAVISVP2,2013-02-07 19:17:00,
2013-02-07 13:22:00,12.9,8.4,30.32,NNW,348,3.0,7.0,82,0.00,,,0.00,WUHU216DAVISVP2,2013-02-07 19:22:00,
2013-02-07 13:27:00,13.1,8.6,30.32,NNE,13,0.0,7.0,82,0.00,,,0.00,WUHU216DAVISVP2,2013-02-07 19:27:00,
2013-02-07 13:32:00,13.5,9.3,30.32,North,349,0.0,6.0,83,0.00,,,0.00,WUHU216DAVISVP2,2013-02-07 19:32:00,
2013-02-07 13:37:00,13.5,9.0,30.32,North,360,2.0,4.0,82,0.00,,,0.00,WUHU216DAVISVP2,2013-02-07 19:37:00,
2013-02-07 13:42:00,13.7,9.2,30.31,NNE,18,7.0,7.0,82,0.00,,,0.00,WUHU216DAVISVP2,2013-02-07 19:42:00,
2013-02-07 13:47:00,13.6,9.1,30.31,NNE,20,1.0,7.0,82,0.00,,,0.00,WUHU216DAVISVP2,2013-02-07 19:47:00,
2013-02-07 13:52:00,13.7,9.2,30.31,North,9,0.0,7.0,82,0.00,,,0.00,WUHU216DAVISVP2,2013-02-07 19:52:00,
2013-02-07 13:57:00,14.1,9.6,30.31,North,9,0.0,4.0,82,0.00,,,0.00,WUHU216DAVISVP2,2013-02-07 19:57:00,
2013-02-07 14:02:00,14.4,10.2,30.31,North,11,0.0,0.0,83,0.00,,,0.00,WUHU216DAVISVP2,2013-02-07 20:02:00,
2013-02-07 14:07:00,14.6,10.1,30.32,North,11,0.0,0.0,82,0.00,,,0.00,WUHU216DAVISVP2,2013-02-07 20:07:00,
2013-02-07 14:12:00,14.6,10.1,30.31,North,11,1.0,3.0,82,0.00,,,0.00,WUHU216DAVISVP2,2013-02-07 20:12:00,
2013-02-07 14:17:00,14.8,10.3,30.31,North,355,2.0,4.0,82,0.00,,,0.00,WUHU216DAVISVP2,2013-02-07 20:17:00,
2013-02-07 14:22:00,14.8,10.3,30.31,NNE,20,1.0,5.0,82,0.00,,,0.00,WUHU216DAVISVP2,2013-02-07 20:22:00,
2013-02-07 14:27:00,15.1,10.6,30.31,NNE,17,0.0,5.0,82,0.00,,,0.00,WUHU216DAVISVP2,2013-02-07 20:27:00,
2013-02-07 14:32:00,15.2,10.7,30.31,North,355,3.0,5.0,82,0.00,,,0.00,WUHU216DAVISVP2,2013-02-07 20:32:00,
2013-02-07 14:37:00,15.4,10.9,30.31,North,360,0.0,5.0,82,0.00,,,0.00,WUHU216DAVISVP2,2013-02-07 20:37:00,
2013-02-07 14:42:00,15.5,11.0,30.32,NNE,22,3.0,5.0,82,0.00,,,0.00,WUHU216DAVISVP2,2013-02-07 20:42:00,
2013-02-07 14:47:00,15.7,11.2,30.32,North,360,1.0,5.0,82,0.00,,,0.00,WUHU216DAVISVP2,2013-02-07 20:47:00,
2013-02-07 14:52:00,15.8,11.3,30.31,North,360,0.0,3.0,82,0.00,,,0.00,WUHU216DAVISVP2,2013-02-07 20:52:00,
2013-02-07 14:57:00,16.0,11.5,30.31,North,10,5.0,6.0,82,0.00,,,0.00,WUHU216DAVISVP2,2013-02-07 20:57:00,
2013-02-07 15:02:00,15.7,11.2,30.31,North,360,2.0,6.0,82,0.00,,,0.00,WUHU216DAVISVP2,2013-02-07 21:02:00,
2013-02-07 15:07:00,15.4,10.9,30.31,North,5,2.0,6.0,82,0.00,,,0.00,WUHU216DAVISVP2,2013-02-07 21:07:00,
2013-02-07 15:12:00,15.4,10.9,30.31,North,5,0.0,5.0,82,0.00,,,0.00,WUHU216DAVISVP2,2013-02-07 21:12:00,
2013-02-07 15:17:00,15.4,10.9,30.32,North,360,0.0,3.0,82,0.00,,,0.00,WUHU216DAVISVP2,2013-02-07 21:17:00,
2013-02-07 15:22:00,15.3,10.8,30.32,North,5,0.0,0.0,82,0.00,,,0.00,WUHU216DAVISVP2,2013-02-07 21:22:00,
2013-02-07 15:27:00,15.4,10.9,30.31,North,5,0.0,0.0,82,0.00,,,0.00,WUHU216DAVISVP2,2013-02-07 21:27:00,
2013-02-07 15:32:00,15.5,11.0,30.32,North,5,2.0,3.0,82,0.00,,,0.00,WUHU216DAVISVP2,2013-02-07 21:32:00,
2013-02-07 15:37:00,15.7,11.2,30.32,North,360,3.0,3.0,82,0.00,,,0.00,WUHU216DAVISVP2,2013-02-07 21:37:00,
2013-02-07 15:42:00,15.8,11.3,30.32,North,360,0.0,3.0,82,0.00,,,0.00,WUHU216DAVISVP2,2013-02-07 21:42:00,
2013-02-07 15:47:00,15.8,11.3,30.32,NNE,17,1.0,4.0,82,0.00,,,0.00,WUHU216DAVISVP2,2013-02-07 21:47:00,
2013-02-07 15:52:00,15.9,11.4,30.32,NNE,16,1.0,4.0,82,0.00,,,0.00,WUHU216DAVISVP2,2013-02-07 21:52:00,
2013-02-07 15:57:00,15.8,11.3,30.31,NNE,14,1.0,3.0,82,0.00,,,0.00,WUHU216DAVISVP2,2013-02-07 21:57:00,
2013-02-07 16:02:00,15.8,11.3,30.32,NNE,15,0.0,3.0,82,0.00,,,0.00,WUHU216DAVISVP2,2013-02-07 22:02:00,
2013-02-07 16:07:00,15.8,11.3,30.32,NNE,15,0.0,3.0,82,0.00,,,0.00,WUHU216DAVISVP2,2013-02-07 22:07:00,
2013-02-07 16:12:00,15.8,11.3,30.32,NNE,14,0.0,0.0,82,0.00,,,0.00,WUHU216DAVISVP2,2013-02-07 22:12:00,
2013-02-07 16:17:00,15.9,11.4,30.32,NNE,14,0.0,0.0,82,0.00,,,0.00,WUHU216DAVISVP2,2013-02-07 22:17:00,
2013-02-07 16:22:00,16.0,11.5,30.32,NNE,15,0.0,0.0,82,0.00,,,0.00,WUHU216DAVISVP2,2013-02-07 22:22:00,
2013-02-07 16:27:00,16.1,11.8,30.32,NNE,14,0.0,0.0,83,0.00,,,0.00,WUHU216DAVISVP2,2013-02-07 22:27:00,
2013-02-07 16:32:00,16.2,11.9,30.32,NNE,13,0.0,0.0,83,0.00,,,0.00,WUHU216DAVISVP2,2013-02-07 22:32:00,
2013-02-07 16:37:00,16.2,11.9,30.32,NNW,341,0.0,0.0,83,0.00,,,0.00,WUHU216DAVISVP2,2013-02-07 22:37:00,
2013-02-07 16:42:00,16.2,11.9,30.33,NNW,341,0.0,0.0,83,0.00,,,0.00,WUHU216DAVISVP2,2013-02-07 22:42:00,
2013-02-07 16:47:00,16.1,11.8,30.32,NNW,341,0.0,0.0,83,0.00,,,0.00,WUHU216DAVISVP2,2013-02-07 22:47:00,
2013-02-07 16:52:00,15.9,11.4,30.32,NNW,342,0.0,0.0,82,0.00,,,0.00,WUHU216DAVISVP2,2013-02-07 22:52:00,
2013-02-07 16:57:00,15.8,11.5,30.32,NNW,342,0.0,0.0,83,0.00,,,0.00,WUHU216DAVISVP2,2013-02-07 22:57:00,
2013-02-07 17:02:00,15.8,11.5,30.33,NNW,342,0.0,0.0,83,0.00,,,0.00,WUHU216DAVISVP2,2013-02-07 23:02:00,
2013-02-07 17:07:00,15.9,11.6,30.32,NNW,340,0.0,0.0,83,0.00,,,0.00,WUHU216DAVISVP2,2013-02-07 23:07:00,
2013-02-07 17:12:00,15.8,11.5,30.32,NNW,340,0.0,0.0,83,0.00,,,0.00,WUHU216DAVISVP2,2013-02-07 23:12:00,
2013-02-07 17:17:00,15.8,11.5,30.33,NNW,340,0.0,0.0,83,0.00,,,0.00,WUHU216DAVISVP2,2013-02-07 23:17:00,
2013-02-07 17:22:00,15.7,11.4,30.32,NNW,340,0.0,0.0,83,0.00,,,0.00,WUHU216DAVISVP2,2013-02-07 23:22:00,
2013-02-07 17:27:00,15.7,11.4,30.32,NNW,340,0.0,0.0,83,0.00,,,0.00,WUHU216DAVISVP2,2013-02-07 23:27:00,
2013-02-07 17:32:00,15.8,11.5,30.32,NNW,340,0.0,0.0,83,0.00,,,0.00,WUHU216DAVISVP2,2013-02-07 23:32:00,
2013-02-07 17:37:00,15.7,11.4,30.32,NNW,340,0.0,0.0,83,0.00,,,0.00,WUHU216DAVISVP2,2013-02-07 23:37:00,
2013-02-07 17:42:00,15.6,11.3,30.33,NNW,340,0.0,0.0,83,0.00,,,0.00,WUHU216DAVISVP2,2013-02-07 23:42:00,
2013-02-07 17:47:00,15.5,11.2,30.33,NNW,340,0.0,0.0,83,0.00,,,0.00,WUHU216DAVISVP2,2013-02-07 23:47:00,
2013-02-07 17:52:00,15.4,11.1,30.33,NNW,348,0.0,0.0,83,0.00,,,0.00,WUHU216DAVISVP2,2013-02-07 23:52:00,
2013-02-07 17:57:00,15.4,11.1,30.33,NNW,348,0.0,0.0,83,0.00,,,0.00,WUHU216DAVISVP2,2013-02-07 23:57:00,
2013-02-07 18:02:00,15.3,11.0,30.33,NNW,348,0.0,0.0,83,0.00,,,0.00,WUHU216DAVISVP2,2013-02-08 00:02:00,
2013-02-07 18:07:00,15.3,11.0,30.33,NNW,348,0.0,0.0,83,0.00,,,0.00,WUHU216DAVISVP2,2013-02-08 00:07:00,
2013-02-07 18:12:00,15.3,11.0,30.33,NNW,348,0.0,0.0,83,0.00,,,0.00,WUHU216DAVISVP2,2013-02-08 00:12:00,
2013-02-07 18:17:00,15.4,11.1,30.34,NNW,348,0.0,0.0,83,0.00,,,0.00,WUHU216DAVISVP2,2013-02-08 00:17:00,
2013-02-07 18:22:00,15.4,11.1,30.33,NNW,348,0.0,0.0,83,0.00,,,0.00,WUHU216DAVISVP2,2013-02-08 00:22:00,
2013-02-07 18:27:00,15.4,11.1,30.34,NNW,348,0.0,0.0,83,0.00,,,0.00,WUHU216DAVISVP2,2013-02-08 00:27:00,
2013-02-07 18:32:00,15.3,11.0,30.34,NNW,348,0.0,0.0,83,0.00,,,0.00,WUHU216DAVISVP2,2013-02-08 00:32:00,
2013-02-07 18:37:00,15.3,11.0,30.34,NNW,348,0.0,0.0,83,0.00,,,0.00,WUHU216DAVISVP2,2013-02-08 00:37:00,
2013-02-07 18:42:00,15.3,11.0,30.34,NNW,348,0.0,0.0,83,0.00,,,0.00,WUHU216DAVISVP2,2013-02-08 00:42:00,
2013-02-07 18:47:00,15.3,11.0,30.34,NNW,348,0.0,0.0,83,0.00,,,0.00,WUHU216DAVISVP2,2013-02-08 00:47:00,
2013-02-07 18:52:00,15.2,10.9,30.34,NNW,348,0.0,0.0,83,0.00,,,0.00,WUHU216DAVISVP2,2013-02-08 00:52:00,
2013-02-07 18:57:00,15.2,10.9,30.34,NNW,348,0.0,0.0,83,0.00,,,0.00,WUHU216DAVISVP2,2013-02-08 00:57:00,
2013-02-07 19:02:00,15.2,10.9,30.35,NNW,348,0.0,0.0,83,0.00,,,0.00,WUHU216DAVISVP2,2013-02-08 01:02:00,
2013-02-07 19:07:00,15.2,10.9,30.35,NNW,348,0.0,0.0,83,0.00,,,0.00,WUHU216DAVISVP2,2013-02-08 01:07:00,
2013-02-07 19:12:00,15.2,10.9,30.35,NNW,348,0.0,0.0,83,0.00,,,0.00,WUHU216DAVISVP2,2013-02-08 01:12:00,
2013-02-07 19:17:00,15.2,10.9,30.35,NNW,348,0.0,0.0,83,0.00,,,0.00,WUHU216DAVISVP2,2013-02-08 01:17:00,
2013-02-07 19:22:00,15.2,10.9,30.35,NNW,348,0.0,0.0,83,0.00,,,0.00,WUHU216DAVISVP2,2013-02-08 01:22:00,
2013-02-07 19:27:00,15.2,10.9,30.35,NNW,348,0.0,0.0,83,0.00,,,0.00,WUHU216DAVISVP2,2013-02-08 01:27:00,
2013-02-07 19:32:00,15.2,10.9,30.35,NNW,348,0.0,0.0,83,0.00,,,0.00,WUHU216DAVISVP2,2013-02-08 01:32:00,
2013-02-07 19:37:00,15.2,10.9,30.35,NNW,348,0.0,0.0,83,0.00,,,0.00,WUHU216DAVISVP2,2013-02-08 01:37:00,
2013-02-07 19:42:00,15.1,10.8,30.36,NNW,348,0.0,0.0,83,0.00,,,0.00,WUHU216DAVISVP2,2013-02-08 01:42:00,
2013-02-07 19:47:00,15.1,10.8,30.35,NNW,348,0.0,0.0,83,0.00,,,0.00,WUHU216DAVISVP2,2013-02-08 01:47:00,
2013-02-07 19:52:00,15.1,10.8,30.35,NNW,348,0.0,0.0,83,0.00,,,0.00,WUHU216DAVISVP2,2013-02-08 01:52:00,
2013-02-07 19:57:00,15.1,10.8,30.34,NNW,348,0.0,0.0,83,0.00,,,0.00,WUHU216DAVISVP2,2013-02-08 01:57:00,
2013-02-07 20:02:00,15.2,10.9,30.34,NNW,348,0.0,0.0,83,0.00,,,0.00,WUHU216DAVISVP2,2013-02-08 02:02:00,
2013-02-07 20:07:00,15.2,10.9,30.34,NNW,348,0.0,0.0,83,0.00,,,0.00,WUHU216DAVISVP2,2013-02-08 02:07:00,
2013-02-07 20:12:00,15.3,11.3,30.34,NNW,348,0.0,0.0,84,0.00,,,0.00,WUHU216DAVISVP2,2013-02-08 02:12:00,
2013-02-07 20:17:00,15.4,11.4,30.34,NNW,348,0.0,0.0,84,0.00,,,0.00,WUHU216DAVISVP2,2013-02-08 02:17:00,
2013-02-07 20:22:00,15.5,11.5,30.34,NNW,348,0.0,0.0,84,0.00,,,0.00,WUHU216DAVISVP2,2013-02-08 02:22:00,
2013-02-07 20:27:00,15.5,11.5,30.34,NNW,348,0.0,0.0,84,0.00,,,0.00,WUHU216DAVISVP2,2013-02-08 02:27:00,
2013-02-07 20:32:00,15.5,11.5,30.34,NNW,348,0.0,0.0,84,0.00,,,0.00,WUHU216DAVISVP2,2013-02-08 02:32:00,
2013-02-07 20:37:00,15.5,11.5,30.34,NNW,348,0.0,0.0,84,0.00,,,0.00,WUHU216DAVISVP2,2013-02-08 02:37:00,
2013-02-07 20:42:00,15.6,11.6,30.35,NNW,348,0.0,0.0,84,0.00,,,0.00,WUHU216DAVISVP2,2013-02-08 02:42:00,
2013-02-07 20:47:00,15.7,11.7,30.36,NNW,348,0.0,0.0,84,0.00,,,0.00,WUHU216DAVISVP2,2013-02-08 02:47:00,
2013-02-07 20:52:00,15.7,11.7,30.36,NNW,348,0.0,0.0,84,0.00,,,0.00,WUHU216DAVISVP2,2013-02-08 02:52:00,
2013-02-07 20:57:00,15.8,11.8,30.36,NNW,348,0.0,0.0,84,0.00,,,0.00,WUHU216DAVISVP2,2013-02-08 02:57:00,
2013-02-07 21:02:00,15.8,11.8,30.37,NNW,348,0.0,0.0,84,0.00,,,0.00,WUHU216DAVISVP2,2013-02-08 03:02:00,
2013-02-07 21:07:00,15.8,11.8,30.37,NNW,348,0.0,0.0,84,0.00,,,0.00,WUHU216DAVISVP2,2013-02-08 03:07:00,
2013-02-07 21:12:00,15.7,11.7,30.37,NNW,348,0.0,0.0,84,0.00,,,0.00,WUHU216DAVISVP2,2013-02-08 03:12:00,
2013-02-07 21:17:00,15.7,11.7,30.37,NNW,348,0.0,0.0,84,0.00,,,0.00,WUHU216DAVISVP2,2013-02-08 03:17:00,
2013-02-07 21:22:00,15.7,11.7,30.37,NNW,348,0.0,0.0,84,0.00,,,0.00,WUHU216DAVISVP2,2013-02-08 03:22:00,
2013-02-07 21:27:00,15.7,11.7,30.37,NNW,348,0.0,0.0,84,0.00,,,0.00,WUHU216DAVISVP2,2013-02-08 03:27:00,
2013-02-07 21:32:00,15.8,11.8,30.37,NNW,348,0.0,0.0,84,0.00,,,0.00,WUHU216DAVISVP2,2013-02-08 03:32:00,
2013-02-07 21:37:00,15.7,11.7,30.38,NNW,348,0.0,0.0,84,0.00,,,0.00,WUHU216DAVISVP2,2013-02-08 03:37:00,
2013-02-07 21:42:00,15.8,11.8,30.38,NNW,348,0.0,0.0,84,0.00,,,0.00,WUHU216DAVISVP2,2013-02-08 03:42:00,
2013-02-07 21:47:00,15.8,13.8,30.38,NNW,348,0.0,0.0,92,0.00,,,0.00,WUHU216DAVISVP2,2013-02-08 03:47:00,
2013-02-07 21:52:00,15.7,11.7,30.38,NNW,348,0.0,0.0,84,0.00,,,0.00,WUHU216DAVISVP2,2013-02-08 03:52:00,
2013-02-07 21:57:00,15.6,11.6,30.38,NNW,348,0.0,0.0,84,0.00,,,0.00,WUHU216DAVISVP2,2013-02-08 03:57:00,
2013-02-07 22:02:00,15.6,11.6,30.38,NNW,348,0.0,0.0,84,0.00,,,0.00,WUHU216DAVISVP2,2013-02-08 04:02:00,
2013-02-07 22:07:00,15.5,11.5,30.38,NNW,348,0.0,0.0,84,0.00,,,0.00,WUHU216DAVISVP2,2013-02-08 04:07:00,
2013-02-07 22:12:00,15.5,11.5,30.38,NNW,348,0.0,0.0,84,0.00,,,0.00,WUHU216DAVISVP2,2013-02-08 04:12:00,
2013-02-07 22:17:00,15.5,11.5,30.38,NNW,348,0.0,0.0,84,0.00,,,0.00,WUHU216DAVISVP2,2013-02-08 04:17:00,
2013-02-07 22:22:00,15.4,11.4,30.38,NNW,348,0.0,0.0,84,0.00,,,0.00,WUHU216DAVISVP2,2013-02-08 04:22:00,
2013-02-07 22:27:00,15.5,11.5,30.38,NNW,348,0.0,0.0,84,0.00,,,0.00,WUHU216DAVISVP2,2013-02-08 04:27:00,
2013-02-07 22:32:00,15.5,11.5,30.38,NNW,348,0.0,0.0,84,0.00,,,0.00,WUHU216DAVISVP2,2013-02-08 04:32:00,
2013-02-07 22:37:00,15.5,11.5,30.38,NNW,348,0.0,0.0,84,0.00,,,0.00,WUHU216DAVISVP2,2013-02-08 04:37:00,
2013-02-07 22:42:00,15.6,11.6,30.37,NNW,348,0.0,0.0,84,0.00,,,0.00,WUHU216DAVISVP2,2013-02-08 04:42:00,
2013-02-07 22:47:00,15.6,11.6,30.38,NNW,348,0.0,0.0,84,0.00,,,0.00,WUHU216DAVISVP2,2013-02-08 04:47:00,
2013-02-07 22:52:00,15.6,11.6,30.37,NNW,348,0.0,0.0,84,0.00,,,0.00,WUHU216DAVISVP2,2013-02-08 04:52:00,
2013-02-07 22:57:00,15.6,11.6,30.37,NNW,348,0.0,0.0,84,0.00,,,0.00,WUHU216DAVISVP2,2013-02-08 04:57:00,
2013-02-07 23:00:00,15.7,11.7,30.37,NNW,348,0.0,0.0,84,0.00,,,0.00,WUHU216DAVISVP2,2013-02-08 05:00:00,
2013-02-07 23:05:00,15.9,11.9,30.37,NNW,348,0.0,0.0,84,0.00,,,0.00,WUHU216DAVISVP2,2013-02-08 05:05:00,
2013-02-07 23:10:00,16.0,12.0,30.36,NNW,348,0.0,0.0,84,0.00,,,0.00,WUHU216DAVISVP2,2013-02-08 05:10:00,
2013-02-07 23:15:00,16.1,12.1,30.36,NNW,348,0.0,0.0,84,0.00,,,0.00,WUHU216DAVISVP2,2013-02-08 05:15:00,
2013-02-07 23:20:00,16.2,12.2,30.36,NNW,348,0.0,0.0,84,0.00,,,0.00,WUHU216DAVISVP2,2013-02-08 05:20:00,
2013-02-07 23:25:00,16.2,12.2,30.36,NNW,348,0.0,0.0,84,0.00,,,0.00,WUHU216DAVISVP2,2013-02-08 05:25:00,
2013-02-07 23:30:00,16.3,12.3,30.36,NNW,348,0.0,0.0,84,0.00,,,0.00,WUHU216DAVISVP2,2013-02-08 05:30:00,
2013-02-07 23:35:00,16.4,12.4,30.35,NNW,348,0.0,0.0,84,0.00,,,0.00,WUHU216DAVISVP2,2013-02-08 05:35:00,
2013-02-07 23:40:00,16.5,12.5,30.36,NNW,348,0.0,0.0,84,0.00,,,0.00,WUHU216DAVISVP2,2013-02-08 05:40:00,
2013-02-07 23:45:00,16.6,12.8,30.36,NNW,348,0.0,0.0,85,0.00,,,0.00,WUHU216DAVISVP2,2013-02-08 05:45:00,
2013-02-07 23:50:00,16.7,12.9,30.36,NNW,348,0.0,0.0,85,0.00,,,0.00,WUHU216DAVISVP2,2013-02-08 05:50:00,
2013-02-07 23:55:00,16.7,12.9,30.35,NNW,348,0.0,0.0,85,0.00,,,0.00,WUHU216DAVISVP2,2013-02-08 05:55:00,